Location: Seattle
(47.6064°N, 122.3308°W)
Time: 05:01:44
(UTC-08:00)

S-56A Canister/Altair - Pass Details

Date: 01 December 2020
Orbit: 633 x 2499 km, 38.9° (Epoch: 23 January)

Event Time Altitude Azimuth Distance (km) Brightness Sun altitude
Rises 00:46:28 0° 271° (W) 4,143 - -62.5°
Reaches altitude 10° 00:51:22 10° 247° (WSW) 2,760 - -62.2°
Maximum altitude 00:54:05 13° 221° (SW) 2,340 - -62.0°
Drops below altitude 10° 00:56:29 10° 195° (SSW) 2,373 - -61.8°
Sets 01:00:03 0° 166° (SSE) 3,083 - -61.5°
